| time (UTC) | temp C | wind direction | speed KPH | gust KPH | rain 1hr cm | rain 24hr cm | rain mn cm | humidity % | barometer mb |
| 20260902020752 | 23 | 29 | 4.8 | 16.1 | 0.00 | 0.00 | 0.00 | 34 | 1009.2 |
| 20260902015241 | 25 | 80 | 9.7 | 16.1 | 0.00 | 0.00 | 0.00 | 33 | 1009.0 |
| 20260902013742 | 25 | 57 | 4.8 | 17.7 | 0.00 | 0.00 | 0.00 | 32 | 1008.9 |
| 20260902012249 | 26 | 57 | 14.5 | 19.3 | 0.00 | 0.00 | 0.00 | 31 | 1009.0 |
| 20260902010749 | 26 | 76 | 9.7 | 20.9 | 0.00 | 0.00 | 0.00 | 30 | 1009.1 |
| 20260902005253 | 27 | 63 | 4.8 | 25.7 | 0.00 | 0.00 | 0.00 | 29 | 1009.2 |
| 20260902003738 | 27 | 75 | 20.9 | 30.6 | 0.00 | 0.00 | 0.00 | 28 | 1009.2 |
| 20260902002306 | 28 | 46 | 17.7 | 29.0 | 0.00 | 0.00 | 0.00 | 28 | 1009.3 |
| 20260902000743 | 28 | 53 | 20.9 | 27.4 | 0.00 | 0.00 | 0.00 | 28 | 1009.2 |
| 20260901235248 | 28 | 75 | 22.5 | 35.4 | 0.00 | 0.00 | 0.00 | 27 | 1009.4 |
| 20260901233749 | 28 | 80 | 17.7 | 24.1 | 0.00 | 0.00 | 0.00 | 27 | 1009.5 |
| 20260901232255 | 28 | 97 | 16.1 | 32.2 | 0.00 | 0.00 | 0.00 | 26 | 1009.5 |
| 20260901230756 | 29 | 96 | 17.7 | 35.4 | 0.00 | 0.00 | 0.00 | 26 | 1009.6 |
| 20260901225318 | 30 | 102 | 30.6 | 35.4 | 0.00 | 0.00 | 0.00 | 25 | 1009.8 |
| 20260901223741 | 30 | 83 | 11.3 | 25.7 | 0.00 | 0.00 | 0.00 | 25 | 1009.8 |
| 20260901222242 | 30 | 75 | 22.5 | 27.4 | 0.00 | 0.00 | 0.00 | 25 | 1009.9 |
| 20260901220745 | 30 | 69 | 11.3 | 32.2 | 0.00 | 0.00 | 0.00 | 25 | 1010.1 |
| 20260901215248 | 30 | 94 | 19.3 | 29.0 | 0.00 | 0.00 | 0.00 | 26 | 1010.3 |
| 20260901213749 | 30 | 76 | 22.5 | 33.8 | 0.00 | 0.00 | 0.00 | 26 | 1010.6 |
| 20260901212316 | 29 | 65 | 19.3 | 29.0 | 0.00 | 0.00 | 0.00 | 28 | 1010.7 |
| 20260901210757 | 30 | 70 | 19.3 | 27.4 | 0.00 | 0.00 | 0.00 | 27 | 1010.8 |
| 20260901205238 | 29 | 49 | 22.5 | 30.6 | 0.00 | 0.00 | 0.00 | 28 | 1011.0 |
| 20260901203749 | 28 | 84 | 19.3 | 27.4 | 0.00 | 0.00 | 0.00 | 28 | 1011.3 |
| 20260901202249 | 28 | 84 | 19.3 | 22.5 | 0.00 | 0.00 | 0.00 | 28 | 1011.3 |
| 20260901200756 | 28 | 102 | 17.7 | 25.7 | 0.00 | 0.00 | 0.00 | 29 | 1011.8 |
| 20260901195300 | 27 | 91 | 25.7 | 27.4 | 0.00 | 0.00 | 0.00 | 30 | 1012.0 |
| 20260901193802 | 27 | 88 | 14.5 | 29.0 | 0.00 | 0.00 | 0.00 | 31 | 1012.3 |
| 20260901192247 | 27 | 103 | 24.1 | 29.0 | 0.00 | 0.00 | 0.00 | 31 | 1012.5 |
| 20260901190749 | 27 | 53 | 6.4 | 25.7 | 0.00 | 0.00 | 0.00 | 31 | 1012.7 |
| 20260901185250 | 27 | 94 | 12.9 | 30.6 | 0.00 | 0.00 | 0.00 | 31 | 1012.9 |
| 20260901183755 | 27 | 107 | 17.7 | 30.6 | 0.00 | 0.00 | 0.00 | 29 | 1013.2 |
| 20260901182255 | 26 | 117 | 24.1 | 33.8 | 0.00 | 0.00 | 0.00 | 31 | 1013.2 |
| 20260901180740 | 26 | 102 | 24.1 | 29.0 | 0.00 | 0.00 | 0.00 | 32 | 1013.5 |
| 20260901175240 | 26 | 79 | 24.1 | 27.4 | 0.00 | 0.00 | 0.00 | 33 | 1013.4 |
| 20260901173803 | 25 | 115 | 14.5 | 27.4 | 0.00 | 0.00 | 0.00 | 33 | 1013.5 |
| 20260901172246 | 25 | 111 | 17.7 | 27.4 | 0.00 | 0.00 | 0.00 | 34 | 1013.8 |
| 20260901170749 | 25 | 107 | 19.3 | 25.7 | 0.00 | 0.00 | 0.00 | 35 | 1013.1 |
| 20260901165251 | 23 | 92 | 16.1 | 27.4 | 0.00 | 0.00 | 0.00 | 36 | 1013.3 |
| 20260901163756 | 23 | 109 | 12.9 | 22.5 | 0.00 | 0.00 | 0.00 | 37 | 1013.5 |
| 20260901162256 | 22 | 81 | 16.1 | 19.3 | 0.00 | 0.00 | 0.00 | 39 | 1013.5 |
| 20260901160802 | 21 | 121 | 16.1 | 20.9 | 0.00 | 0.00 | 0.00 | 40 | 1013.5 |
| 20260901155242 | 20 | 84 | 12.9 | 17.7 | 0.00 | 0.00 | 0.00 | 43 | 1013.7 |
| 20260901153743 | 18 | 136 | 4.8 | 17.7 | 0.00 | 0.00 | 0.00 | 48 | 1013.7 |
| 20260901152248 | 19 | 115 | 11.3 | 14.5 | 0.00 | 0.00 | 0.00 | 44 | 1013.7 |
| 20260901150809 | 18 | 79 | 6.4 | 9.7 | 0.00 | 0.00 | 0.00 | 47 | 1013.6 |
| 20260901145249 | 17 | 36 | 0.0 | 8.0 | 0.00 | 0.00 | 0.00 | 49 | 1013.6 |
| 20260901143755 | 16 | 36 | 4.8 | 9.7 | 0.00 | 0.00 | 0.00 | 52 | 1013.6 |
| 20260901142240 | 15 | 14 | 1.6 | 8.0 | 0.00 | 0.00 | 0.00 | 56 | 1013.8 |
| 20260901140808 | 13 | 10 | 0.0 | 9.7 | 0.00 | 0.00 | 0.00 | 57 | 1014.0 |
| 20260901135247 | 12 | 331 | 0.0 | 8.0 | 0.00 | 0.00 | 0.00 | 61 | 1014.0 |
| 20260901133748 | 11 | 275 | 4.8 | 4.8 | 0.00 | 0.00 | 0.00 | 65 | 1014.2 |
| 20260901132313 | 8 | 263 | 1.6 | 3.2 | 0.00 | 0.00 | 0.00 | 72 | 1014.3 |
| 20260901130752 | 7 | 259 | 0.0 | 1.6 | 0.00 | 0.00 | 0.00 | 75 | 1014.2 |
| 20260901125254 | 6 | 258 | 0.0 | 0.0 | 0.00 | 0.00 | 0.00 | 73 | 1014.4 |
| 20260901123739 | 7 | 258 | 0.0 | 0.0 | 0.00 | 0.00 | 0.00 | 73 | 1014.3 |
| 20260901122244 | 7 | 258 | 0.0 | 4.8 | 0.00 | 0.00 | 0.00 | 72 | 1014.0 |
| 20260901120753 | 7 | 240 | 0.0 | 1.6 | 0.00 | 0.00 | 0.00 | 73 | 1013.9 |
| 20260901115314 | 7 | 239 | 0.0 | 0.0 | 0.00 | 0.00 | 0.00 | 72 | 1014.0 |
| 20260901113756 | 7 | 240 | 0.0 | 0.0 | 0.00 | 0.00 | 0.00 | 72 | 1014.1 |
| 20260901112241 | 7 | 240 | 0.0 | 6.4 | 0.00 | 0.00 | 0.00 | 70 | 1013.9 |
| 20260901110802 | 8 | 285 | 0.0 | 0.0 | 0.00 | 0.00 | 0.00 | 67 | 1013.7 |
| 20260901105242 | 8 | 285 | 0.0 | 0.0 | 0.00 | 0.00 | 0.00 | 67 | 1013.6 |
| 20260901103750 | 8 | 285 | 0.0 | 3.2 | 0.00 | 0.00 | 0.00 | 68 | 1014.5 |
| 20260901102251 | 8 | 285 | 0.0 | 0.0 | 0.00 | 0.00 | 0.00 | 68 | 1014.5 |
| 20260901100756 | 8 | 285 | 0.0 | 0.0 | 0.00 | 0.00 | 0.00 | 67 | 1014.6 |
| 20260901095256 | 8 | 285 | 0.0 | 1.6 | 0.00 | 0.00 | 0.00 | 67 | 1014.6 |
| 20260901093757 | 8 | 285 | 0.0 | 1.6 | 0.00 | 0.00 | 0.00 | 66 | 1014.7 |
| 20260901092301 | 8 | 285 | 0.0 | 1.6 | 0.00 | 0.00 | 0.00 | 65 | 1014.6 |
| 20260901090744 | 8 | 285 | 0.0 | 1.6 | 0.00 | 0.00 | 0.00 | 67 | 1014.5 |
| 20260901085249 | 8 | 285 | 0.0 | 3.2 | 0.00 | 0.00 | 0.00 | 64 | 1014.6 |
| 20260901083812 | 9 | 285 | 0.0 | 4.8 | 0.00 | 0.00 | 0.00 | 64 | 1014.7 |
| 20260901082250 | 8 | 285 | 0.0 | 4.8 | 0.00 | 0.00 | 0.00 | 65 | 1014.7 |
| 20260901080813 | 8 | 285 | 0.0 | 0.0 | 0.00 | 0.00 | 0.00 | 66 | 1015.0 |
| 20260901075257 | 7 | 285 | 0.0 | 0.0 | 0.00 | 0.00 | 0.00 | 67 | 1014.9 |
| 20260901073757 | 8 | 285 | 0.0 | 0.0 | 0.00 | 0.00 | 0.00 | 68 | 1014.7 |
| 20260901072244 | 8 | 285 | 1.6 | 1.6 | 0.00 | 0.00 | 0.00 | 67 | 1014.8 |
| 20260901070744 | 8 | 285 | 0.0 | 3.2 | 0.00 | 0.00 | 0.00 | 66 | 1014.5 |
| 20260901065244 | 8 | 285 | 0.0 | 0.0 | 0.00 | 0.00 | 0.00 | 66 | 1014.8 |
| 20260901063751 | 9 | 285 | 0.0 | 0.0 | 0.00 | 0.00 | 0.00 | 62 | 1014.5 |
| 20260901062253 | 9 | 285 | 0.0 | 0.0 | 0.00 | 0.00 | 0.00 | 62 | 1014.4 |
| 20260901060752 | 10 | 285 | 0.0 | 0.0 | 0.00 | 0.00 | 0.00 | 61 | 1014.0 |
| 20260901055256 | 10 | 285 | 0.0 | 1.6 | 0.00 | 0.00 | 0.00 | 60 | 1014.0 |
| 20260901053757 | 10 | 285 | 0.0 | 3.2 | 0.00 | 0.00 | 0.00 | 59 | 1013.8 |
| 20260901052243 | 11 | 285 | 0.0 | 0.0 | 0.00 | 0.00 | 0.00 | 58 | 1014.0 |
| 20260901050744 | 11 | 285 | 0.0 | 0.0 | 0.00 | 0.00 | 0.00 | 57 | 1013.7 |
| 20260901045245 | 12 | 285 | 0.0 | 0.0 | 0.00 | 0.00 | 0.00 | 55 | 1013.8 |
| 20260901043814 | 13 | 285 | 0.0 | 0.0 | 0.00 | 0.00 | 0.00 | 52 | 1013.8 |
| 20260901042253 | 13 | 285 | 0.0 | 0.0 | 0.00 | 0.00 | 0.00 | 51 | 1013.8 |
| 20260901040755 | 13 | 285 | 0.0 | 3.2 | 0.00 | 0.00 | 0.00 | 52 | 1013.8 |
| 20260901035300 | 13 | 285 | 0.0 | 4.8 | 0.00 | 0.00 | 0.00 | 50 | 1013.7 |
| 20260901033742 | 15 | 285 | 0.0 | 1.6 | 0.00 | 0.00 | 0.00 | 48 | 1013.6 |
| 20260901032246 | 15 | 285 | 0.0 | 1.6 | 0.00 | 0.00 | 0.00 | 47 | 1013.3 |
| 20260901030810 | 15 | 285 | 0.0 | 1.6 | 0.00 | 0.00 | 0.00 | 47 | 1013.3 |
| 20260901025313 | 16 | 285 | 0.0 | 1.6 | 0.00 | 0.00 | 0.00 | 45 | 1013.3 |
| 20260901023754 | 17 | 285 | 0.0 | 3.2 | 0.00 | 0.00 | 0.00 | 43 | 1013.0 |
| 20260901022300 | 18 | 285 | 1.6 | 3.2 | 0.00 | 0.00 | 0.00 | 42 | 1013.0 |